This demonstration page uses our WeatherBlox Daily Observations layout. Learn more.

Left ArrowRight Arrow

39.51506, -84.39828

Hourly Observations for July 8, 2015

Temp ( °F °C ) Dew Point ( °F °C ) Humidity (%) Winds ( mph kmh ) Pressure ( in mb ) Visibility ( mi km ) Precip ( " mm )
12:15 am 00:15 undefined N/A N/A N/A undefined N/A N/A N/A N/A
12:35 am 00:35 undefined N/A N/A N/A undefined N/A N/A N/A N/A
12:55 am 00:55 undefined N/A N/A N/A undefined N/A N/A N/A N/A
1:15 am 01:15 undefined 69 20.8 65 18.5 87 87 WNW 3 6 30.03 1017 10 16 N/A
1:35 am 01:35 Cloudy 69 20.8 65 18.5 87 87 WNW 3 6 30.03 1017 10 16 N/A
1:55 am 01:55 Cloudy N/A N/A N/A undefined N/A N/A N/A N/A
2:15 am 02:15 Cloudy 69 20.8 65 18.5 87 87 NNW 3 6 30.03 1017 10 16 N/A
2:35 am 02:35 Cloudy 69 20.8 65 18.5 87 87 N N/A 30.03 1017 10 16 N/A
2:55 am 02:55 Cloudy 69 20.8 65 18.6 87 87 N 5 7 30.00 1016 10 16 N/A
3:15 am 03:15 Cloudy 69 20.8 65 18.5 87 87 N 5 7 30.03 1017 10 16 N/A
3:35 am 03:35 Cloudy 69 20.8 65 18.4 86 86 N 5 7 30.03 1017 10 16 N/A
3:55 am 03:55 Cloudy 69 20.8 65 18.3 86 86 NNE 5 7 30.03 1017 10 16 N/A
4:15 am 04:15 Cloudy 69 20.8 65 18.3 86 86 NNE 5 7 30.03 1017 10 16 N/A
4:35 am 04:35 Cloudy 69 20.8 65 18.5 87 87 NNE 5 7 30.03 1017 10 16 N/A
4:55 am 04:55 undefined N/A N/A N/A undefined N/A N/A N/A N/A
5:15 am 05:15 undefined N/A N/A N/A undefined N/A N/A N/A N/A
5:35 am 05:35 undefined N/A N/A N/A undefined N/A N/A N/A N/A
5:55 am 05:55 undefined N/A N/A N/A undefined N/A N/A N/A N/A
6:15 am 06:15 undefined N/A N/A N/A undefined N/A N/A N/A N/A
6:35 am 06:35 undefined N/A N/A N/A undefined N/A N/A N/A N/A
6:55 am 06:55 undefined N/A N/A N/A undefined N/A N/A N/A N/A
7:15 am 07:15 undefined N/A N/A N/A undefined N/A N/A N/A N/A
7:35 am 07:35 undefined N/A N/A N/A undefined N/A N/A N/A N/A
7:55 am 07:55 undefined N/A N/A N/A undefined N/A N/A N/A N/A
8:15 am 08:15 undefined N/A N/A N/A undefined N/A N/A N/A N/A
8:35 am 08:35 undefined N/A N/A N/A undefined N/A N/A N/A N/A
8:55 am 08:55 undefined N/A N/A N/A undefined N/A N/A N/A N/A
9:15 am 09:15 undefined N/A N/A N/A undefined N/A N/A N/A N/A
9:35 am 09:35 undefined N/A N/A N/A undefined N/A N/A N/A N/A
9:55 am 09:55 undefined N/A N/A N/A undefined N/A N/A N/A N/A
10:15 am 10:15 undefined N/A N/A N/A undefined N/A N/A N/A N/A
10:35 am 10:35 undefined N/A N/A N/A undefined N/A N/A N/A N/A
10:55 am 10:55 undefined N/A N/A N/A undefined N/A N/A N/A N/A
11:15 am 11:15 undefined N/A N/A N/A undefined N/A N/A N/A N/A
11:35 am 11:35 undefined 69 20.8 65 18.5 87 87 ENE 7 11 30.06 1018 10 16 N/A
11:55 am 11:55 Cloudy N/A N/A N/A undefined N/A N/A N/A N/A
12:15 pm 12:15 undefined N/A N/A N/A undefined N/A N/A N/A N/A
12:35 pm 12:35 undefined N/A N/A N/A undefined N/A N/A N/A N/A
12:55 pm 12:55 undefined N/A N/A N/A undefined N/A N/A N/A N/A
1:15 pm 13:15 undefined N/A N/A N/A undefined N/A N/A N/A N/A
1:35 pm 13:35 Partly Cloudy with Drizzle 69 20.8 65 18.5 87 87 ENE 6 9 30.06 1018 5 8 N/A
1:55 pm 13:55 Cloudy N/A N/A N/A undefined N/A N/A 3 4 N/A
2:15 pm 14:15 undefined N/A N/A N/A undefined N/A N/A N/A N/A
2:35 pm 14:35 undefined N/A N/A N/A undefined N/A N/A N/A N/A
2:55 pm 14:55 undefined N/A N/A N/A undefined N/A N/A N/A N/A
3:15 pm 15:15 undefined N/A N/A N/A undefined N/A N/A N/A N/A
3:35 pm 15:35 Partly Cloudy with Light Rain 69 20.8 65 18.6 87 87 NE 3 6 30.06 1018 10 16 N/A
3:55 pm 15:55 undefined N/A N/A N/A undefined N/A N/A N/A N/A
4:15 pm 16:15 undefined N/A N/A N/A undefined N/A N/A N/A N/A
4:35 pm 16:35 undefined N/A N/A N/A undefined N/A N/A N/A N/A
4:55 pm 16:55 undefined N/A N/A N/A undefined N/A N/A N/A N/A
5:15 pm 17:15 undefined 70 21 66 18.7 87 87 N N/A 30.03 1017 10 16 N/A
5:35 pm 17:35 Cloudy with Drizzle 71 21.7 67 19.4 87 87 N N/A 30.03 1017 10 16 N/A
5:55 pm 17:55 undefined N/A N/A N/A undefined N/A N/A N/A N/A
6:15 pm 18:15 undefined N/A N/A N/A undefined N/A N/A N/A N/A
6:35 pm 18:35 undefined N/A N/A N/A undefined N/A N/A N/A N/A
6:55 pm 18:55 undefined N/A N/A N/A undefined N/A N/A N/A N/A
7:15 pm 19:15 Partly Cloudy with Drizzle 72 22.3 68 20.2 88 88 N N/A 30.03 1017 10 16 N/A
7:35 pm 19:35 Cloudy 72 22.3 68 20.2 88 88 N N/A 30.03 1017 10 16 N/A
7:55 pm 19:55 undefined N/A N/A N/A undefined N/A N/A N/A N/A
8:15 pm 20:15 undefined N/A N/A N/A undefined N/A N/A N/A N/A
8:35 pm 20:35 undefined 74 23.6 71 21.6 89 89 N N/A 30.03 1017 10 16 N/A
8:55 pm 20:55 Cloudy N/A N/A N/A undefined N/A N/A N/A N/A
9:15 pm 21:15 undefined N/A N/A N/A undefined N/A N/A N/A N/A
9:35 pm 21:35 undefined N/A N/A N/A N N/A N/A N/A N/A
9:55 pm 21:55 undefined N/A N/A N/A undefined N/A N/A N/A N/A
10:15 pm 22:15 undefined N/A N/A N/A undefined N/A N/A N/A N/A
10:35 pm 22:35 undefined N/A N/A N/A undefined N/A N/A N/A N/A
10:55 pm 22:55 undefined 72 22.3 69 20.8 91 91 N N/A 30.03 1017 7 11 N/A
11:15 pm 23:15 Mostly Cloudy 71 21.9 69 20.3 91 91 N N/A 30.03 1017 7 11 N/A
11:35 pm 23:35 Mostly Cloudy with Mist and Fog 71 21.6 68 20 91 91 N N/A 30.00 1016 5 8 N/A
11:55 pm 23:55 Mostly Cloudy with Mist and Fog 70 21 67 19.5 91 91 N N/A 30.00 1016 3 5 N/A

Powered by AerisWeather